Wind_Speed
21 23 24 23 22 21 19 17 16 15 15 13 13 14 16 16 16 14 12 10 11 14 15 14 12 13 14 15 17 17 17 16 15 16 18 18 18 18 19 19 17 14 13 12 13 14 15 17 19 19 18 17 16 16 17 17 16 18 19 17 16 19 16 12 13 15 15 15 14 12 12 13 14 14 13 11 10 9 8 8 6 5 3 2 2 2
22 24 24 23 22 20 16 15 15 15 16 16 17 19 21 21 21 19 16 13 13 15 15 15 14 16 18 17 18 19 20 20 19 19 19 19 20 20 21 20 19 17 16 16 16 16 16 17 18 18 17 16 15 16 16 15 16 19 18 15 16 17 15 12 12 14 14 14 13 12 12 13 14 13 12 11 9 8 7 6 5 3 2 1 1 0
21 24 24 23 23 21 17 15 14 14 15 16 17 18 21 22 20 15 12 9 9 13 15 15 16 19 20 19 19 19 21 22 23 23 21 19 20 20 21 21 20 19 19 19 18 18 18 18 17 17 18 17 15 15 16 15 15 19 19 16 15 15 15 14 13 15 15 15 14 14 14 15 14 13 12 10 9 8 7 6 5 4 3 2 2 2
21 22 24 24 22 20 18 17 16 16 18 19 19 20 22 23 18 12 9 7 7 11 14 14 16 19 20 20 18 18 19 21 25 26 24 22 22 22 20 20 19 20 20 20 20 20 19 19 19 18 18 18 16 16 16 14 14 18 19 16 14 15 16 17 16 16 17 16 16 15 16 16 15 14 12 10 9 9 8 6 5 4 4 3 3 2
22 18 18 21 21 19 18 18 18 18 20 21 22 23 24 23 20 17 15 13 12 13 15 13 14 18 19 17 17 17 18 21 25 29 29 28 26 25 24 22 21 21 21 21 21 21 21 21 21 19 18 18 18 17 15 14 13 16 18 16 15 16 17 18 18 18 18 17 16 15 16 17 16 14 12 11 11 10 8 7 5 4 3 3 2 1
24 20 14 13 15 17 18 17 17 16 17 19 20 21 20 19 18 17 15 13 12 11 10 8 7 11 12 12 14 16 18 20 24 29 33 32 29 28 28 26 23 22 23 23 23 22 23 23 22 20 20 19 19 18 16 15 15 16 18 18 18 18 18 18 18 18 18 17 15 15 15 16 14 12 12 12 11 10 8 7 5 4 3 2 2 1
23 23 19 13 12 13 14 15 14 12 12 14 13 11 12 12 12 12 12 11 9 6 5 6 6 8 9 11 11 13 16 18 23 29 33 33 32 31 31 29 27 24 23 23 23 23 24 24 23 21 20 20 19 19 18 17 17 18 20 21 21 20 19 17 18 20 19 17 16 15 16 15 13 13 14 12 11 10 8 7 5 4 3 2 1 2
21 22 22 20 17 16 16 15 12 11 11 9 5 5 6 6 6 7 7 9 9 8 9 12 12 11 12 14 12 12 15 17 24 31 34 35 34 33 32 30 28 25 23 22 22 22 24 24 24 22 20 20 19 19 19 19 19 20 21 23 23 22 20 19 19 20 20 18 17 18 18 17 16 16 15 13 11 10 8 7 5 4 3 2 2 3
17 16 17 18 18 19 17 12 9 10 10 7 3 5 6 5 4 5 6 8 9 9 11 14 12 9 9 12 12 11 14 17 23 31 34 36 34 30 30 29 27 26 24 22 21 23 25 25 26 24 21 21 20 20 20 21 21 21 23 24 24 24 22 21 20 20 21 20 18 19 19 19 19 18 16 14 12 10 9 7 6 5 4 3 3 4
12 10 10 11 14 16 14 9 8 8 7 6 5 7 7 5 5 5 6 7 6 5 10 13 10 6 6 9 10 10 13 15 19 28 31 33 31 28 28 27 27 27 24 22 23 25 27 27 28 26 24 24 23 22 22 22 24 24 24 25 26 25 23 22 22 22 22 21 20 21 21 20 20 18 17 15 13 11 9 7 6 5 4 4 4 5
13 12 11 10 10 13 12 9 8 7 6 6 7 7 6 4 4 4 4 4 3 5 11 13 10 7 5 6 8 9 12 12 16 26 29 30 29 28 28 28 28 27 25 24 25 25 27 28 30 29 27 25 24 23 23 25 26 26 26 26 25 25 24 23 22 23 23 22 22 23 22 21 20 18 17 15 14 12 10 8 6 5 4 3 4 5
17 17 15 13 11 11 11 10 10 9 8 8 8 7 3 1 1 1 1 3 4 5 6 7 7 9 9 6 6 9 11 11 14 24 29 29 29 29 29 28 28 26 25 26 24 23 25 29 30 29 28 26 25 25 25 27 29 28 27 25 24 25 24 23 23 24 25 25 24 25 24 22 20 18 17 16 15 13 10 8 6 4 2 3 4 6
18 19 17 14 13 13 12 12 12 11 10 10 10 8 4 1 2 2 2 3 5 6 5 5 4 7 12 12 12 13 12 11 12 16 22 25 26 27 27 27 26 25 26 25 22 20 23 28 28 29 29 27 26 27 28 29 28 25 22 21 23 24 23 22 24 26 27 26 26 25 24 22 21 20 18 17 15 13 11 8 6 4 2 2 3 5
14 14 15 14 14 15 15 14 14 11 9 9 11 11 9 4 2 2 3 1 5 7 9 11 7 6 10 11 12 14 12 10 9 11 16 19 21 22 23 23 23 23 23 23 20 19 23 27 29 30 30 28 29 30 29 27 22 20 18 19 23 24 23 23 23 25 26 27 26 25 24 23 21 21 19 17 15 13 11 8 6 3 1 2 3 5
9 8 11 13 12 14 16 15 12 9 8 8 9 11 12 9 5 3 3 4 5 4 4 7 6 4 6 7 9 13 12 9 8 9 13 15 17 19 20 20 20 20 21 20 20 21 24 27 29 31 30 29 31 28 22 20 18 18 20 21 23 22 22 21 20 21 22 25 27 25 24 23 21 21 19 17 15 13 10 8 5 3 2 3 4 5
8 6 7 13 12 11 12 12 11 10 10 9 8 11 14 13 9 5 5 6 4 2 2 5 6 7 8 8 9 12 15 13 11 11 13 14 15 16 16 17 17 17 18 20 21 24 26 26 27 29 30 29 27 20 14 16 18 18 21 22 22 21 20 18 16 16 18 23 27 25 23 22 21 21 19 16 14 12 10 7 5 3 3 3 5 5
7 6 5 10 12 11 9 9 10 10 9 9 11 14 14 12 12 8 4 4 3 2 4 5 5 7 9 9 10 11 13 15 15 14 15 15 15 15 14 15 14 14 15 16 17 19 21 23 25 27 28 25 22 19 16 16 17 18 22 22 20 18 16 14 14 16 18 23 25 23 22 23 22 21 19 17 14 12 9 7 5 4 4 4 5 6
8 7 5 7 9 10 9 8 9 10 10 10 11 13 11 9 12 11 3 0 2 3 4 4 5 7 7 6 10 13 12 12 14 14 15 15 15 15 14 13 12 13 13 12 13 16 19 22 26 26 25 21 20 21 19 17 17 18 21 21 19 18 14 12 15 17 21 24 23 21 22 23 22 22 20 17 14 11 10 8 7 6 6 6 6 6
10 8 5 6 7 8 9 8 8 11 13 13 11 10 9 7 9 11 6 1 2 3 1 2 4 7 9 8 8 12 13 13 12 13 13 14 15 15 14 12 12 13 14 13 15 20 22 22 24 25 23 21 20 22 21 18 18 19 20 20 20 18 15 13 16 19 24 26 24 21 23 23 23 22 19 16 14 12 11 10 9 8 8 7 7 7
14 9 5 6 7 7 8 9 9 10 13 16 14 12 11 8 7 10 10 6 3 3 1 1 2 4 9 11 8 8 11 12 12 11 10 10 12 14 13 11 11 13 15 13 14 20 24 22 24 24 24 22 20 21 21 17 17 19 19 19 19 18 15 14 17 22 27 28 25 23 23 23 22 21 19 16 15 14 13 13 12 10 9 9 9 8
18 15 9 6 6 6 6 7 8 10 12 16 17 17 16 13 9 8 10 10 5 1 1 2 2 3 6 10 11 9 8 10 9 7 6 6 7 9 9 7 8 12 13 12 14 22 27 25 26 26 25 24 21 22 22 18 15 15 17 19 19 17 14 14 18 24 28 29 27 25 24 23 23 22 20 18 18 17 16 15 14 12 11 11 11 9
18 19 16 12 9 8 8 6 6 8 10 13 16 19 19 18 14 7 7 10 8 3 3 3 2 2 5 8 11 11 10 9 8 6 5 5 5 6 6 5 6 10 12 11 15 28 32 28 29 28 26 25 23 23 21 18 14 14 18 21 18 16 16 17 20 24 27 28 27 26 25 24 24 23 22 21 20 20 19 17 15 13 13 13 12 11
18 17 17 14 11 9 8 8 8 7 9 10 12 15 18 19 18 11 6 8 9 7 4 3 2 3 6 8 9 11 11 10 8 7 5 3 2 3 3 5 8 11 12 11 19 34 36 30 28 27 26 25 23 20 18 16 15 15 18 20 17 16 18 20 21 23 24 25 26 27 26 25 25 24 23 23 23 23 21 18 16 15 14 14 14 13
16 13 12 11 7 6 7 8 10 9 8 9 10 12 15 18 19 16 11 8 10 10 7 3 3 5 8 9 8 10 11 10 10 9 5 2 1 2 3 6 9 11 12 12 27 39 35 29 26 25 26 24 21 16 14 15 15 16 18 19 17 17 18 21 23 24 25 25 25 26 26 26 26 25 24 24 24 23 21 18 17 17 16 15 15 15
14 11 10 9 4 4 6 7 9 10 8 8 10 10 11 13 16 16 13 9 8 11 10 5 3 4 7 8 8 10 10 10 11 9 5 4 4 4 3 4 6 5 7 12 27 31 26 23 20 19 20 18 13 9 10 14 15 16 19 21 19 18 19 22 24 26 28 29 28 29 28 27 27 26 25 25 25 24 22 19 18 18 18 18 18 17
11 10 10 9 5 4 5 5 7 9 8 8 10 10 9 9 10 11 12 10 9 10 12 7 4 6 7 6 8 9 9 11 12 8 7 7 6 4 3 3 3 2 2 8 17 18 17 17 15 15 14 11 7 5 8 14 17 17 19 21 21 20 20 22 25 26 28 30 31 32 31 29 28 27 25 25 26 26 24 22 21 21 21 20 19 18
10 8 10 12 11 7 6 7 10 11 9 8 9 10 9 9 9 10 10 10 9 10 13 12 10 9 7 7 9 11 11 12 11 9 9 8 6 4 5 5 4 4 3 5 8 11 14 15 16 16 13 10 9 7 8 15 18 17 19 20 21 21 21 22 24 26 29 32 33 33 32 31 30 28 26 27 27 27 26 24 22 22 22 22 21 20
13 7 7 10 12 10 8 8 9 11 10 9 10 10 10 9 10 11 11 10 10 9 10 12 13 11 11 11 12 13 13 13 11 9 8 6 4 5 8 7 6 5 4 4 4 6 9 11 13 13 11 10 10 11 11 16 18 18 20 20 21 22 22 22 23 25 29 31 31 30 30 31 32 30 28 28 28 27 26 25 24 24 24 24 24 23
13 9 7 6 7 9 10 9 8 9 9 10 10 10 10 9 8 10 9 8 9 8 7 10 14 13 13 14 13 14 14 12 10 9 8 6 6 9 10 8 7 7 6 4 4 5 7 9 10 10 10 11 10 12 11 14 19 21 22 22 23 23 23 22 21 22 23 23 23 24 26 29 31 31 30 29 29 28 27 27 26 27 27 27 27 26
9 9 8 8 7 6 7 7 7 7 7 8 10 10 10 9 7 8 8 8 9 7 5 9 14 15 14 14 14 14 14 12 10 9 9 8 10 12 11 9 9 7 5 3 5 7 8 7 7 8 9 9 9 12 12 11 17 22 24 24 24 24 24 23 21 20 20 20 21 23 25 27 28 29 29 30 30 31 32 31 29 28 28 29 29 28
9 9 8 9 9 7 6 6 4 4 3 4 6 7 8 8 7 7 8 8 8 6 5 8 13 14 13 13 13 13 13 12 11 10 10 10 11 13 12 9 6 5 3 3 6 7 6 5 5 7 8 9 9 10 11 12 17 23 26 25 24 23 23 22 20 20 22 23 25 25 25 26 27 27 29 31 32 33 34 31 29 30 32 31 29 29
10 9 8 8 8 7 7 7 6 5 4 3 3 4 5 7 8 8 9 8 7 6 5 7 12 13 11 11 13 13 11 9 9 9 10 10 11 11 9 6 4 4 4 4 6 5 5 5 4 3 2 4 6 7 9 12 16 21 23 22 21 20 20 19 19 20 22 24 25 25 23 24 26 28 29 31 32 34 32 26 24 27 32 33 32 31
7 7 8 7 6 6 8 9 8 7 6 3 2 1 1 3 5 7 8 9 8 6 5 6 8 10 9 9 10 12 11 9 7 6 6 7 8 7 7 6 4 4 4 4 6 6 4 1 2 4 5 6 6 8 10 12 15 17 18 18 17 16 16 16 16 16 17 19 20 21 21 21 23 23 23 23 23 25 24 21 19 21 25 27 29 31
8 7 8 8 7 5 7 9 8 6 4 4 4 4 3 2 2 4 5 6 7 8 8 6 6 8 8 7 7 9 11 11 9 7 5 7 6 5 5 6 6 5 4 2 5 6 2 3 6 6 7 8 8 9 11 14 15 14 15 15 15 14 14 13 12 12 13 13 14 15 15 15 16 16 16 15 14 16 18 18 19 20 21 21 21 26
6 7 8 8 7 5 5 8 6 2 1 3 4 4 2 2 2 2 2 3 5 7 7 7 7 8 8 7 6 7 8 9 10 10 9 9 7 5 5 7 7 6 5 4 5 5 2 9 9 6 6 7 7 8 9 10 12 13 14 14 13 14 13 12 12 11 11 11 11 11 10 12 13 14 14 13 12 13 14 15 16 17 17 17 16 18
4 6 9 9 7 6 6 5 3 2 3 2 3 2 2 2 2 1 2 3 4 4 3 5 7 7 7 7 7 6 7 6 6 9 9 8 6 6 7 8 8 6 5 5 5 3 8 13 9 5 5 7 7 7 7 8 9 10 11 13 13 13 13 12 12 11 11 11 10 9 9 10 11 12 12 11 11 11 12 11 10 11 13 15 16 18
3 6 9 8 7 7 8 6 4 4 3 1 1 1 1 2 3 3 3 4 3 3 3 3 4 5 6 6 6 6 7 6 4 7 8 8 8 9 10 9 7 5 5 5 5 4 11 14 9 7 8 7 5 5 5 6 5 6 9 12 13 13 13 13 13 12 12 10 9 9 9 9 8 9 10 10 10 11 12 11 10 10 13 15 17 17
4 4 6 6 6 7 9 7 4 3 1 1 0 1 1 3 4 3 4 3 1 2 3 3 5 5 6 6 7 8 7 6 7 9 9 9 9 10 12 12 11 10 8 7 7 8 13 14 12 11 11 8 6 6 6 6 5 6 9 11 11 12 11 11 12 12 12 11 9 9 8 7 7 8 9 9 9 10 12 12 11 12 14 15 16 18
5 4 4 5 7 8 8 5 3 2 1 1 1 1 0 4 6 5 4 3 3 1 3 5 7 6 5 5 8 9 6 5 8 10 9 8 7 8 9 10 12 13 13 12 11 13 15 14 13 12 12 12 11 8 8 9 9 9 11 11 12 12 11 10 10 10 10 10 9 8 7 6 6 7 8 8 9 11 13 13 13 13 14 15 17 19
6 6 5 6 8 8 7 6 5 4 2 2 1 1 1 4 5 3 2 3 3 1 3 5 8 7 6 6 6 7 6 2 4 7 7 6 6 6 5 7 10 12 14 16 18 19 19 18 17 16 15 14 12 10 11 13 14 13 13 13 13 12 10 10 10 9 9 8 7 6 5 5 6 7 8 8 9 10 11 12 13 14 15 16 18 19
9 10 9 10 10 7 6 6 6 5 4 2 1 1 1 2 2 1 2 4 5 4 5 7 9 9 10 10 8 8 9 6 2 5 7 7 6 7 7 9 10 9 10 14 17 18 18 17 18 20 19 16 13 12 13 13 14 15 15 15 15 14 12 10 9 8 8 7 6 6 5 6 6 7 8 8 9 9 10 12 14 16 17 18 19 20
10 11 11 11 11 9 7 8 7 5 7 5 1 1 1 1 2 1 5 7 8 9 10 11 11 10 11 11 9 9 11 9 5 6 9 11 10 10 12 15 15 12 8 10 13 13 13 12 13 16 16 13 11 11 11 11 12 13 13 13 14 14 12 10 9 8 8 7 6 6 6 7 7 8 8 8 8 9 11 13 14 15 16 17 19 21
11 9 9 9 9 9 9 7 5 4 7 7 3 1 2 3 3 4 8 9 9 9 10 10 11 11 11 11 10 10 11 10 8 8 10 12 12 13 15 16 14 10 9 10 11 12 11 11 12 13 12 9 8 9 10 11 11 12 12 11 11 11 11 10 10 10 9 7 7 6 7 8 8 9 9 10 11 11 12 13 14 15 16 17 18 20
14 11 9 8 7 7 8 8 6 6 7 7 6 4 2 1 1 5 10 11 10 10 9 7 7 11 12 9 6 10 13 12 10 10 9 10 12 13 13 11 8 8 9 10 11 12 12 12 12 13 12 11 10 10 10 10 11 12 12 10 9 9 9 8 8 8 8 7 7 8 10 11 12 13 13 14 15 15 16 17 18 18 19 20 21 22
15 14 12 11 11 11 11 10 8 7 7 6 7 7 6 4 2 4 8 11 12 13 12 8 8 11 13 9 7 11 15 13 12 11 9 9 10 10 9 8 7 8 8 8 9 10 11 12 13 13 12 12 11 11 10 10 10 10 10 9 9 9 9 9 9 10 10 10 11 12 13 15 16 17 18 19 19 20 20 21 21 22 22 22 23 24
17 15 13 13 14 13 12 11 9 8 7 7 8 8 7 6 4 3 6 8 8 10 13 13 11 12 12 12 12 14 15 15 15 13 11 9 8 8 8 8 8 7 7 6 7 7 8 9 10 10 10 10 10 11 11 11 11 11 10 10 10 10 11 12 12 13 13 14 15 16 17 18 19 20 20 21 22 22 22 22 22 23 23 24 25 26
16 15 14 13 12 11 11 11 9 8 8 8 9 9 8 8 7 5 4 5 4 6 12 14 12 11 12 14 16 18 17 17 16 14 11 8 6 5 6 6 6 5 5 4 4 4 5 5 5 5 6 6 8 9 10 10 11 12 12 12 13 13 14 14 15 15 16 17 17 18 19 19 20 21 21 22 23 23 23 24 25 26 27 27 28 29
12 12 13 13 12 11 11 11 9 7 7 8 8 7 6 6 8 8 6 5 3 3 7 9 9 11 13 15 16 18 20 19 16 13 11 8 5 4 3 3 4 3 2 2 2 3 3 3 4 4 5 5 6 7 7 8 9 10 10 11 12 12 13 14 14 15 16 18 19 20 21 22 22 23 24 24 25 26 27 28 29 29 30 31 32 33
10 9 11 11 11 11 10 9 8 8 7 6 5 4 3 4 5 6 6 6 6 5 5 5 7 11 14 14 15 15 16 15 13 12 10 7 6 5 3 3 4 4 4 5 5 5 6 6 6 7 8 8 8 9 10 10 10 10 10 10 11 12 13 14 15 17 18 19 21 22 23 23 24 25 26 27 28 29 29 30 31 32 33 34 34 34
10 10 10 9 9 9 8 8 8 6 5 5 5 5 4 4 4 4 5 5 5 7 8 9 10 11 11 12 13 13 11 10 9 9 7 6 5 5 4 4 5 6 6 7 7 8 9 9 10 10 11 12 12 12 12 13 13 13 14 14 15 15 16 17 18 20 21 22 23 24 24 25 26 26 27 28 29 30 31 31 32 33 34 34 34 34
10 10 9 8 8 8 7 7 7 5 5 5 5 4 3 3 4 4 5 4 5 6 7 8 8 8 9 9 10 9 8 7 6 5 4 3 2 3 4 5 6 6 7 8 8 9 9 10 10 11 11 12 13 13 13 14 15 15 16 17 18 18 18 19 20 21 23 23 24 25 25 25 26 26 27 27 28 29 30 31 31 31 31 31 31 30
Wind_Direction
211 214 217 221 226 224 222 225 229 234 240 243 246 252 258 265 270 271 271 258 251 257 247 240 246 238 229 231 236 240 240 235 227 217 211 204 200 207 211 208 204 201 193 188 188 184 179 183 190 191 191 192 196 200 203 211 222 223 220 228 225 205 198 205 206 205 207 204 202 207 215 217 216 217 214 209 210 219 226 227 224 223 229 234 244 258
211 216 222 227 229 227 226 228 233 239 246 252 255 260 265 270 276 282 286 273 255 259 253 243 247 240 230 228 231 234 237 237 235 226 216 207 203 210 217 213 208 205 200 195 196 197 192 192 196 195 191 191 196 200 207 215 226 228 221 226 234 214 197 201 204 203 204 201 201 207 213 214 214 212 208 207 211 214 208 196 187 184 186 183 171 114
213 218 222 226 229 231 231 231 235 242 248 253 257 262 266 270 279 291 299 284 250 252 251 248 255 249 238 235 234 236 238 237 237 236 231 225 218 218 223 220 213 209 206 200 200 203 202 202 203 199 193 192 196 201 209 217 227 232 222 216 226 218 201 198 198 197 198 200 202 203 205 207 208 206 203 207 205 190 177 172 172 165 148 135 116 98
215 223 224 225 231 233 236 237 240 246 250 253 257 261 264 269 279 286 287 283 255 248 250 255 266 262 250 244 241 241 242 238 238 240 239 236 230 227 231 230 221 215 212 206 204 207 208 211 211 205 199 196 197 201 209 216 226 236 228 214 218 219 207 198 195 196 197 200 204 203 203 200 199 200 200 200 188 170 164 166 161 147 135 132 120 104
219 227 227 227 234 237 239 241 243 249 255 258 259 262 267 273 279 279 279 282 267 254 254 260 272 269 259 250 242 237 237 235 235 237 237 235 232 229 229 227 220 216 215 211 209 209 211 216 216 211 206 201 202 205 211 217 224 236 233 220 219 221 213 201 193 196 200 203 206 206 204 197 193 196 195 188 174 162 163 161 148 139 136 136 129 129
224 228 226 220 226 232 235 237 239 247 256 261 263 267 276 282 281 276 275 276 268 259 251 242 258 264 250 236 230 229 231 234 233 235 236 235 234 231 227 223 218 214 215 215 215 216 219 221 220 216 211 206 207 210 215 221 222 229 230 224 222 219 214 206 194 195 204 207 210 209 201 194 192 193 188 180 169 162 160 152 140 136 132 124 121 101
228 227 226 218 213 218 226 230 231 236 249 262 271 284 293 286 276 268 264 259 256 256 234 223 248 271 260 240 235 242 246 243 234 234 236 233 232 233 230 223 218 215 215 216 218 219 222 225 225 221 216 212 212 214 218 222 220 224 227 224 223 218 213 209 197 194 203 209 209 202 191 187 190 188 181 174 168 160 153 146 141 138 124 110 92 55
233 229 228 228 227 227 230 231 223 219 232 252 284 327 317 290 271 266 262 248 249 263 266 261 261 268 272 265 263 265 263 253 237 232 232 227 226 230 227 221 219 217 215 217 219 220 221 225 227 224 221 218 216 217 221 222 219 223 230 227 222 219 212 206 200 197 202 207 205 195 186 183 186 182 174 168 165 156 150 148 142 134 117 97 59 33
236 232 227 228 231 232 230 228 214 210 224 242 290 324 318 305 268 250 250 250 262 277 274 265 254 248 263 267 273 276 269 263 244 231 225 220 220 221 219 217 218 216 215 216 219 223 223 224 225 223 222 222 220 221 223 224 221 223 232 232 225 222 212 201 199 199 202 203 197 189 185 186 185 178 169 166 162 156 153 148 137 125 108 83 52 30
236 234 229 227 225 221 218 215 207 209 229 249 282 308 312 304 274 253 253 258 266 263 258 258 247 241 266 264 267 276 278 269 241 224 218 215 213 211 210 212 214 214 214 215 216 222 225 223 223 222 223 223 222 224 226 226 224 223 230 231 228 226 215 198 196 198 201 199 189 185 186 187 184 175 168 165 160 157 153 144 134 120 99 73 43 23
236 243 247 238 220 210 207 209 210 218 245 262 277 301 314 306 285 275 267 253 239 243 258 265 256 250 270 268 262 272 282 268 226 212 209 206 205 204 204 208 211 213 215 216 216 220 222 221 220 220 221 222 223 225 227 228 226 224 226 228 228 227 215 199 196 197 199 194 184 183 185 185 180 171 166 164 159 157 153 145 137 118 89 53 23 10
239 245 248 242 230 215 209 214 223 237 253 264 277 284 291 281 214 224 213 193 219 247 268 285 269 240 238 256 271 278 281 261 222 209 206 203 203 204 204 207 211 214 216 218 219 219 219 217 218 221 223 224 225 228 229 230 227 223 222 222 225 228 219 204 197 199 197 188 181 183 183 180 174 167 167 166 161 157 154 151 144 124 88 35 8 357
248 250 249 245 239 225 218 226 236 244 246 252 259 242 210 186 168 193 190 194 241 256 269 284 274 234 242 257 263 267 271 257 231 213 207 206 207 207 207 207 210 212 215 220 221 219 217 215 216 222 225 225 226 229 231 232 230 229 227 222 222 229 227 214 203 201 193 179 177 183 180 175 169 167 170 168 163 160 158 159 154 139 105 24 356 344
254 257 248 239 232 220 217 225 229 234 233 236 235 209 185 171 155 201 207 233 263 262 264 261 255 250 256 261 251 248 254 247 227 212 207 206 205 206 208 209 212 213 216 222 222 218 216 217 219 221 224 226 226 228 231 234 239 242 240 230 226 230 231 223 212 203 188 171 173 181 177 172 169 169 173 170 165 165 165 167 164 155 154 326 332 332
235 255 238 222 221 216 215 219 221 229 242 253 244 213 200 196 190 205 212 228 254 262 259 239 228 227 236 246 239 228 228 230 218 208 207 205 204 206 210 214 219 220 222 224 220 216 216 219 221 221 223 227 228 229 233 238 243 244 241 231 227 230 231 228 221 208 188 169 172 179 175 172 172 174 175 172 170 172 174 174 173 183 242 299 322 327
225 248 218 202 210 213 212 217 222 234 249 256 237 216 216 216 216 224 216 223 245 269 223 206 215 225 225 234 233 217 219 227 229 222 214 211 210 209 211 216 220 223 225 222 217 216 217 220 221 221 224 229 235 240 241 241 240 238 236 229 224 227 228 225 222 213 196 175 171 175 175 175 179 181 179 176 176 179 182 182 186 220 259 291 313 318
224 240 210 198 205 205 205 215 221 225 233 225 206 211 224 224 221 224 218 223 244 266 239 219 231 235 229 232 224 215 222 227 231 231 224 220 218 213 215 219 224 233 235 230 228 224 220 219 218 221 226 231 241 247 240 236 236 233 232 230 228 232 231 224 217 208 199 184 171 170 177 180 184 186 182 181 182 184 190 198 206 234 262 284 300 305
234 249 241 210 206 209 216 228 228 224 223 215 209 219 227 219 217 220 216 183 222 248 245 232 250 243 227 228 219 218 226 226 228 232 230 230 226 220 223 228 241 260 267 270 260 237 220 214 214 218 225 231 241 246 240 232 228 228 230 229 230 234 230 223 214 202 194 186 173 171 181 185 187 189 187 186 188 190 201 213 221 238 256 271 287 298
241 255 254 225 218 218 220 228 230 223 222 225 226 226 221 211 210 209 207 214 216 235 255 241 265 252 232 231 222 219 224 226 231 235 235 237 234 231 230 228 236 255 265 278 268 237 218 212 214 219 224 226 232 239 240 231 223 222 222 220 224 229 225 215 205 195 190 185 178 178 185 188 191 193 192 193 198 204 214 225 232 240 250 257 274 293
230 239 257 238 220 209 211 223 227 220 219 224 226 223 219 220 215 204 208 224 231 225 219 228 267 251 234 233 231 229 226 225 233 243 244 244 241 242 243 231 231 244 250 267 265 230 206 202 214 222 225 221 223 233 238 233 224 218 211 211 219 225 221 206 192 187 187 186 184 187 190 192 195 197 198 202 209 215 222 231 236 243 252 254 264 287
226 230 237 224 204 207 220 227 227 224 221 218 217 217 216 216 210 201 212 222 228 198 176 225 245 230 230 230 231 242 243 234 234 243 256 268 262 261 272 266 257 259 256 267 259 223 201 199 211 220 224 219 218 230 235 231 226 214 203 207 216 217 209 196 184 182 185 189 192 195 196 196 197 199 203 208 214 218 223 231 237 246 258 259 262 279
219 225 231 234 241 256 256 242 228 222 218 218 221 222 221 215 203 194 213 215 215 208 184 204 244 249 243 234 232 242 254 256 253 245 241 254 271 283 296 295 279 268 264 266 241 214 204 205 212 219 228 227 225 232 234 232 227 209 201 207 211 208 199 191 184 182 186 192 196 199 200 201 201 204 208 211 216 220 225 232 239 248 258 260 262 273
214 221 229 235 248 257 257 248 235 224 218 218 222 223 224 220 212 215 230 210 201 203 190 193 227 256 258 249 239 241 251 263 268 267 259 250 278 297 284 283 286 280 282 269 221 206 205 211 216 221 226 227 229 231 228 227 222 205 202 207 207 203 196 189 186 186 189 194 198 200 202 205 206 208 210 212 217 222 226 232 239 246 254 260 263 268
203 210 209 207 220 230 228 224 214 210 216 215 214 215 218 222 222 227 238 222 201 195 184 183 214 237 252 251 238 233 239 248 253 262 277 266 259 269 249 270 281 287 296 255 209 201 204 214 222 226 228 231 235 230 216 214 210 201 203 207 206 203 196 190 191 192 192 194 198 203 207 211 212 210 210 213 218 223 227 232 239 243 250 257 259 262
188 195 187 173 173 191 196 207 202 196 198 200 202 201 203 214 222 227 234 230 210 200 197 201 199 212 239 247 235 227 229 239 245 251 254 238 246 258 244 262 274 293 302 232 203 198 205 217 226 230 231 234 234 219 202 207 205 196 198 202 203 201 198 195 196 198 199 199 201 206 211 215 217 213 213 217 221 225 228 232 236 241 246 250 252 255
201 213 206 192 187 176 175 197 205 199 193 189 194 194 190 202 215 220 224 224 220 211 202 200 203 205 217 229 228 227 230 238 243 243 234 237 259 261 204 197 219 201 218 210 201 201 211 224 241 246 237 227 215 179 177 197 202 197 196 199 199 200 200 199 198 201 203 203 205 208 212 217 219 216 216 220 224 226 229 231 234 239 244 247 249 252
214 218 218 218 218 207 187 192 200 203 201 191 192 197 200 211 216 214 216 220 225 216 203 208 220 212 199 198 206 215 224 233 238 236 226 233 261 249 183 178 191 190 198 208 207 212 216 232 259 271 267 258 257 254 209 195 200 200 198 199 201 201 203 201 200 203 205 206 207 209 211 215 217 216 217 221 224 227 231 233 236 240 243 247 250 252
225 225 221 222 223 220 215 214 214 215 220 216 207 205 203 206 210 210 217 228 227 218 214 220 222 209 196 197 201 207 215 224 226 217 212 225 233 189 176 183 191 190 205 223 224 224 224 239 262 280 286 279 270 262 227 195 195 201 199 198 202 204 205 204 202 204 208 210 211 211 211 213 216 218 219 221 224 227 231 234 236 238 242 247 249 250
222 223 219 214 213 216 218 224 227 225 232 232 222 215 208 203 202 204 211 218 212 213 227 220 212 207 205 205 205 206 210 218 216 199 192 199 190 180 183 189 188 191 208 230 246 251 251 257 271 285 286 276 268 265 242 198 190 197 200 200 203 204 206 208 207 207 211 214 214 213 213 214 217 220 222 223 225 227 230 233 237 238 242 247 251 253
198 205 211 212 201 196 201 208 214 217 230 232 221 215 213 209 201 195 193 190 189 198 216 208 206 210 212 212 212 210 208 210 210 196 187 188 186 185 189 189 187 196 215 248 279 283 283 286 293 296 292 283 272 270 263 227 199 196 197 199 203 205 208 213 216 219 220 221 221 220 220 222 224 225 227 229 231 232 232 231 233 238 243 247 251 253
197 196 199 206 199 192 194 194 192 195 207 217 209 209 216 216 207 195 189 182 177 180 186 198 205 208 210 211 212 210 207 208 211 203 190 188 190 191 192 195 205 216 227 280 304 300 297 308 309 301 298 293 278 262 253 237 214 202 195 193 197 204 207 210 215 221 224 225 228 227 226 228 229 229 231 234 235 237 238 236 235 239 242 242 245 249
200 193 182 192 196 198 202 198 192 192 194 192 183 185 204 212 206 201 198 193 189 183 173 186 198 203 208 211 213 213 207 204 217 217 203 196 195 194 194 196 208 213 222 275 311 305 291 299 306 296 278 258 244 225 217 212 202 196 188 180 183 195 202 206 211 216 220 223 228 231 232 235 236 236 237 239 239 241 246 251 250 246 243 240 242 243
161 155 151 163 182 200 210 202 190 191 201 216 235 239 236 214 209 210 209 208 208 197 172 173 189 198 206 214 218 219 211 201 205 218 224 220 205 194 197 200 208 222 232 280 307 297 292 302 141 132 114 122 149 155 153 155 163 172 170 162 168 183 195 205 211 214 218 220 227 234 238 241 242 240 240 242 240 238 241 248 251 247 243 240 240 237
125 124 129 141 153 178 206 200 190 190 194 210 241 272 311 300 228 213 209 204 200 195 189 186 189 194 207 220 218 216 219 218 208 192 201 229 226 207 209 222 231 233 233 265 294 294 306 120 140 141 120 112 124 133 131 132 141 155 158 155 162 174 182 190 197 204 211 215 222 228 229 230 230 230 232 234 230 227 230 240 247 246 240 235 236 237
142 130 131 144 148 146 168 181 190 203 153 190 230 252 282 294 256 222 189 161 165 181 196 208 207 200 208 220 216 208 221 226 217 205 207 226 240 226 221 240 245 238 241 262 286 297 142 139 149 158 140 119 113 118 126 135 142 146 149 153 162 170 173 176 183 192 199 205 213 217 216 219 223 226 229 230 230 230 233 242 245 237 226 219 219 221
181 154 145 149 147 135 138 150 156 122 125 163 207 207 190 198 216 192 121 124 140 155 191 232 232 215 204 210 212 214 227 229 219 218 218 224 233 221 223 240 235 222 223 234 264 260 159 159 176 193 157 136 130 129 137 147 151 152 155 159 163 164 164 166 172 180 186 192 202 206 207 214 223 228 225 227 237 235 225 225 224 207 195 193 195 199
165 163 153 146 142 140 134 120 110 124 133 147 173 174 147 138 160 168 139 131 152 174 189 213 213 194 186 192 198 213 238 255 238 217 213 219 228 229 232 236 222 204 202 212 242 218 168 172 188 173 151 157 163 155 154 159 165 171 167 162 158 157 157 161 166 171 176 182 189 196 199 203 214 223 221 225 237 227 210 204 200 198 198 197 199 207
137 154 154 140 143 154 143 124 121 143 123 346 274 309 8 96 113 129 127 113 121 181 178 147 128 140 158 181 201 209 226 242 228 212 206 209 218 225 230 231 223 215 211 214 226 204 180 182 185 172 175 194 190 166 170 178 184 181 170 161 158 153 150 153 160 165 169 172 177 187 197 201 208 212 208 212 220 213 209 211 215 223 227 219 217 223
123 124 139 139 147 160 152 126 108 114 70 304 259 307 13 103 93 87 98 85 72 147 175 137 123 128 145 178 198 194 189 207 214 206 199 201 214 225 229 229 222 210 198 193 194 188 182 186 187 183 190 194 184 178 182 177 171 169 165 160 156 150 145 148 154 157 160 163 167 177 193 204 209 209 208 215 221 218 221 228 234 239 237 229 229 235
126 113 113 121 129 145 142 112 95 82 35 301 264 315 125 109 84 61 69 81 81 181 193 144 125 125 131 140 154 151 138 152 216 201 191 196 210 208 206 216 215 203 193 187 184 182 183 184 182 178 180 183 183 180 174 166 163 164 166 164 156 150 149 151 153 153 153 156 164 178 199 213 216 216 219 228 233 231 233 239 244 247 246 242 245 247
102 92 90 95 100 113 120 107 99 77 38 6 272 281 189 122 73 17 130 120 120 136 139 131 126 126 123 116 116 128 127 112 130 183 171 163 169 169 169 179 175 163 170 180 177 176 177 175 172 169 168 169 167 163 163 163 160 159 162 159 153 151 151 152 155 158 160 166 176 191 213 233 239 239 238 239 240 240 241 245 248 252 252 252 255 257
85 79 82 87 89 95 100 101 102 72 34 19 338 262 237 228 273 222 144 138 138 132 121 119 122 127 129 123 117 122 124 116 117 153 152 147 151 157 160 163 155 140 147 172 174 170 166 164 169 171 169 168 162 159 163 165 160 161 164 161 157 158 160 162 169 174 176 180 188 198 213 227 237 244 248 251 252 250 250 252 253 256 256 255 256 257
81 77 75 80 87 89 85 86 90 45 19 14 15 346 243 250 245 179 155 153 154 145 130 121 120 127 133 131 125 122 122 119 126 141 147 147 150 154 157 158 155 153 165 176 179 179 176 177 183 186 187 192 187 174 174 175 174 176 178 174 172 175 178 183 188 191 194 199 211 227 236 243 251 257 259 262 263 264 264 265 265 266 265 264 263 262
75 73 69 73 86 84 76 76 74 55 40 39 47 57 74 135 159 160 160 163 162 151 136 124 127 137 139 137 141 139 132 129 134 138 141 148 155 162 164 160 153 159 169 178 187 193 195 195 196 197 199 202 199 191 189 192 191 186 182 183 189 194 201 208 211 213 217 221 232 245 253 258 263 266 268 269 268 268 268 268 267 267 267 266 265 264
72 70 68 74 84 88 91 93 90 80 73 71 71 68 69 80 115 160 161 162 164 161 153 142 139 146 145 139 142 146 142 141 144 140 135 139 150 163 170 163 153 152 156 167 184 197 204 203 200 201 201 200 199 198 199 203 205 201 197 199 207 216 226 234 239 242 246 251 258 263 265 267 269 270 271 272 272 272 272 271 270 269 268 268 267 266
77 73 71 76 82 86 91 96 98 96 90 86 85 78 69 69 78 130 159 165 174 178 175 169 167 173 169 152 147 153 151 144 139 132 126 128 134 144 154 156 155 156 156 160 172 189 204 205 201 202 203 205 209 213 216 221 225 228 231 233 236 240 244 250 256 262 266 270 272 273 273 273 273 273 273 273 273 274 274 274 274 274 273 273 273 272
77 74 73 76 80 84 88 89 93 104 104 95 86 78 71 67 62 72 126 157 183 195 189 185 185 189 182 165 159 160 154 142 135 131 132 136 137 136 141 143 143 144 147 155 167 182 200 212 218 218 217 222 227 230 233 234 235 240 245 248 249 250 251 255 260 264 269 272 274 276 276 276 275 274 274 273 274 274 274 275 275 275 275 276 276 277
76 74 73 72 76 84 87 81 76 83 97 102 95 83 79 72 60 59 73 78 73 155 181 189 186 175 167 163 161 156 147 139 134 133 138 149 156 154 150 148 151 154 155 168 200 223 229 238 250 256 259 263 262 260 261 258 254 254 254 254 254 256 257 259 262 265 269 272 274 275 276 276 277 278 278 278 278 279 279 278 278 278 279 279 280 281
73 72 71 69 71 77 80 76 70 69 78 92 98 95 83 67 49 38 39 42 48 69 97 128 147 148 147 148 148 144 136 128 123 124 135 151 164 174 184 186 188 198 203 208 222 237 245 250 256 259 264 268 272 276 279 279 278 278 278 276 274 272 272 273 274 275 276 277 278 278 279 280 281 282 282 282 283 283 284 284 284 285 285 285 285 285
66 65 65 66 68 71 74 71 65 66 79 91 93 82 63 58 50 17 4 19 48 75 96 113 122 125 130 136 137 131 123 115 114 121 134 150 166 183 210 225 226 222 217 218 225 232 238 244 246 248 251 255 259 265 271 275 279 282 283 283 281 279 278 277 277 278 278 279 279 280 280 281 282 283 284 284 283 283 283 283 283 283 283 284 284 284
61 59 59 61 66 70 73 65 54 55 81 98 97 86 58 55 57 35 23 40 65 84 104 122 127 125 131 137 136 131 128 125 126 131 140 159 188 215 241 254 254 245 236 234 235 236 239 242 242 242 242 244 247 250 252 256 260 264 267 269 270 271 272 271 271 272 272 273 273 274 274 276 276 277 278 278 279 279 278 278 278 278 278 279 279 280
Height
3088 3089 3089 3090 3091 3092 3094 3095 3097 3098 3099 3100 3101 3101 3101 3102 3102 3104 3105 3106 3106 3106 3106 3106 3107 3107 3108 3108 3109 3109 3109 3110 3111 3111 3112 3113 3114 3115 3116 3118 3121 3123 3124 3126 3126 3127 3128 3129 3130 3131 3132 3132 3132 3133 3133 3133 3133 3132 3132 3133 3133 3133 3134 3135 3136 3137 3139 3140 3142 3144 3146 3147 3149 3150 3152 3153 3155 3156 3157 3157 3158 3159 3160 3160 3161 3161
3087 3087 3088 3089 3090 3092 3094 3095 3096 3097 3098 3099 3100 3100 3100 3100 3100 3102 3103 3104 3105 3104 3104 3104 3104 3104 3105 3106 3106 3106 3106 3108 3109 3110 3110 3111 3112 3113 3114 3116 3118 3121 3122 3123 3125 3126 3127 3128 3129 3130 3131 3131 3131 3131 3131 3132 3130 3130 3132 3133 3133 3133 3133 3134 3135 3136 3137 3139 3141 3143 3145 3146 3148 3149 3151 3152 3154 3155 3156 3157 3157 3158 3159 3160 3160 3160
3085 3086 3087 3088 3089 3091 3093 3094 3095 3096 3097 3097 3098 3098 3098 3098 3099 3101 3102 3102 3102 3102 3102 3102 3102 3101 3102 3103 3103 3104 3104 3106 3107 3108 3109 3110 3111 3111 3112 3113 3116 3118 3120 3121 3122 3124 3126 3126 3127 3128 3129 3129 3130 3130 3130 3130 3129 3128 3129 3131 3131 3132 3132 3133 3134 3135 3136 3137 3139 3141 3143 3144 3146 3148 3150 3151 3153 3154 3155 3156 3157 3158 3159 3159 3160 3160
3084 3084 3086 3087 3088 3090 3091 3092 3094 3094 3095 3095 3096 3096 3096 3096 3098 3100 3100 3100 3100 3100 3099 3100 3099 3098 3099 3100 3101 3102 3103 3104 3105 3105 3106 3108 3109 3110 3110 3112 3114 3115 3117 3119 3120 3122 3124 3124 3125 3126 3127 3128 3128 3128 3128 3128 3128 3126 3126 3129 3130 3131 3132 3132 3133 3134 3134 3136 3137 3139 3141 3143 3145 3147 3149 3151 3152 3153 3154 3155 3156 3157 3158 3159 3159 3159
3083 3083 3085 3086 3087 3089 3090 3091 3092 3093 3093 3093 3094 3094 3094 3095 3097 3098 3099 3099 3099 3098 3097 3098 3098 3096 3096 3098 3099 3100 3100 3101 3102 3102 3103 3104 3106 3107 3108 3109 3111 3112 3114 3116 3117 3119 3121 3122 3123 3125 3126 3126 3126 3127 3127 3127 3127 3125 3125 3127 3129 3129 3130 3131 3132 3133 3134 3135 3136 3138 3140 3141 3144 3146 3148 3150 3151 3153 3154 3155 3156 3157 3158 3158 3159 3159
3082 3083 3084 3085 3086 3087 3088 3089 3090 3091 3091 3091 3092 3092 3093 3094 3095 3096 3097 3097 3097 3096 3095 3097 3096 3093 3093 3096 3096 3097 3097 3097 3098 3098 3099 3101 3103 3104 3105 3106 3108 3109 3111 3113 3114 3117 3118 3120 3122 3123 3124 3125 3125 3125 3125 3125 3125 3124 3124 3125 3126 3127 3128 3129 3131 3132 3133 3134 3136 3138 3139 3141 3143 3145 3147 3149 3151 3152 3153 3155 3155 3156 3157 3158 3158 3158
3080 3081 3083 3084 3085 3086 3086 3087 3088 3089 3090 3090 3090 3091 3092 3092 3093 3093 3094 3096 3095 3094 3094 3095 3095 3092 3091 3093 3094 3094 3094 3094 3094 3094 3095 3097 3099 3101 3103 3105 3106 3107 3109 3110 3112 3114 3116 3118 3120 3121 3122 3123 3123 3124 3124 3123 3123 3123 3122 3122 3123 3124 3126 3128 3129 3131 3132 3134 3135 3137 3139 3141 3143 3144 3146 3148 3150 3151 3153 3154 3155 3156 3157 3157 3157 3158
3078 3080 3081 3082 3083 3084 3085 3085 3087 3088 3088 3089 3089 3090 3090 3090 3091 3092 3093 3094 3094 3093 3093 3093 3094 3092 3090 3090 3091 3091 3091 3090 3089 3089 3090 3092 3094 3096 3099 3102 3104 3106 3107 3108 3110 3112 3113 3116 3118 3119 3121 3121 3122 3122 3122 3121 3121 3121 3120 3120 3121 3122 3123 3126 3127 3128 3130 3132 3134 3136 3138 3139 3141 3143 3145 3147 3149 3150 3152 3153 3154 3156 3156 3156 3157 3157
3076 3078 3080 3081 3082 3082 3083 3084 3086 3086 3087 3087 3088 3089 3089 3089 3090 3091 3092 3092 3092 3093 3091 3090 3092 3091 3088 3088 3088 3088 3087 3086 3084 3084 3085 3087 3090 3093 3096 3100 3103 3104 3105 3106 3108 3109 3111 3113 3115 3117 3119 3119 3119 3120 3119 3119 3119 3119 3118 3117 3118 3119 3120 3123 3125 3126 3128 3130 3133 3135 3136 3138 3139 3141 3144 3146 3148 3150 3151 3153 3154 3155 3155 3156 3156 3156
3076 3077 3078 3079 3080 3081 3082 3084 3085 3085 3086 3086 3087 3087 3087 3088 3088 3090 3090 3090 3091 3091 3088 3088 3090 3089 3086 3085 3086 3085 3084 3083 3081 3081 3083 3085 3088 3090 3094 3097 3099 3101 3102 3103 3105 3106 3108 3110 3112 3114 3115 3116 3117 3117 3117 3117 3117 3117 3116 3115 3116 3117 3118 3121 3123 3124 3126 3129 3131 3134 3135 3137 3139 3141 3143 3145 3147 3149 3151 3152 3153 3154 3155 3155 3156 3156
3075 3076 3077 3078 3078 3080 3081 3082 3083 3083 3084 3085 3085 3086 3086 3087 3087 3088 3089 3089 3090 3088 3085 3086 3088 3089 3085 3082 3083 3083 3082 3081 3080 3080 3082 3084 3086 3088 3092 3094 3096 3097 3099 3100 3101 3103 3105 3107 3109 3110 3112 3113 3114 3115 3115 3115 3114 3114 3115 3115 3115 3115 3116 3119 3122 3123 3124 3127 3130 3132 3134 3136 3139 3141 3142 3144 3147 3149 3150 3151 3152 3153 3154 3154 3155 3155
3074 3074 3075 3076 3077 3078 3079 3080 3081 3081 3082 3083 3084 3085 3086 3086 3087 3088 3088 3089 3088 3084 3083 3085 3086 3087 3085 3081 3081 3082 3081 3080 3079 3080 3081 3082 3084 3086 3089 3091 3093 3095 3096 3097 3099 3101 3103 3104 3106 3108 3110 3111 3112 3113 3113 3112 3110 3110 3113 3114 3115 3114 3115 3118 3120 3121 3123 3125 3128 3131 3133 3136 3138 3140 3142 3144 3146 3148 3149 3150 3151 3152 3153 3154 3154 3154
3072 3072 3073 3074 3075 3076 3077 3078 3078 3079 3080 3081 3082 3084 3085 3085 3087 3087 3086 3087 3085 3082 3082 3084 3085 3085 3082 3080 3080 3080 3080 3080 3079 3079 3080 3081 3083 3084 3087 3089 3091 3092 3094 3095 3098 3100 3103 3104 3106 3107 3108 3109 3110 3111 3111 3109 3109 3111 3115 3116 3116 3115 3116 3117 3119 3121 3122 3124 3128 3131 3133 3135 3137 3139 3142 3144 3146 3147 3148 3149 3151 3152 3153 3153 3154 3154
3070 3071 3071 3072 3072 3073 3074 3075 3076 3077 3078 3079 3080 3082 3083 3083 3086 3087 3086 3085 3083 3081 3081 3083 3084 3083 3080 3078 3079 3079 3079 3079 3078 3079 3079 3080 3081 3083 3085 3087 3089 3091 3092 3094 3096 3099 3101 3102 3103 3104 3106 3107 3107 3107 3108 3111 3113 3115 3117 3118 3116 3116 3116 3117 3119 3121 3121 3123 3127 3131 3133 3135 3137 3139 3142 3144 3145 3146 3147 3149 3150 3151 3152 3153 3153 3153
3069 3069 3068 3070 3070 3071 3072 3074 3075 3076 3076 3077 3078 3079 3080 3080 3082 3083 3082 3082 3080 3079 3080 3081 3081 3079 3077 3077 3077 3077 3078 3078 3078 3078 3078 3079 3080 3081 3083 3085 3087 3089 3091 3093 3095 3097 3098 3098 3099 3101 3104 3104 3104 3106 3111 3114 3115 3115 3115 3115 3114 3115 3117 3117 3120 3123 3123 3123 3126 3131 3133 3135 3137 3139 3141 3143 3144 3145 3147 3148 3149 3150 3152 3152 3153 3153
3068 3067 3066 3068 3069 3070 3071 3072 3073 3074 3074 3075 3076 3077 3077 3077 3078 3079 3079 3079 3079 3079 3079 3079 3078 3076 3076 3076 3076 3077 3077 3077 3078 3077 3077 3078 3078 3079 3081 3082 3085 3086 3088 3091 3093 3094 3095 3096 3097 3099 3100 3102 3106 3110 3114 3114 3113 3112 3112 3111 3112 3114 3116 3118 3122 3125 3126 3125 3126 3130 3133 3135 3137 3139 3141 3142 3143 3144 3146 3147 3148 3150 3151 3152 3152 3152
3066 3066 3066 3067 3068 3069 3070 3071 3072 3072 3072 3073 3074 3074 3075 3076 3077 3077 3078 3078 3079 3079 3077 3077 3076 3075 3075 3075 3075 3076 3076 3076 3077 3076 3076 3077 3077 3079 3080 3082 3084 3085 3086 3089 3091 3093 3094 3095 3096 3096 3098 3102 3107 3111 3113 3112 3112 3111 3110 3109 3111 3114 3117 3119 3122 3124 3127 3127 3127 3130 3133 3135 3137 3139 3140 3141 3142 3143 3145 3146 3148 3149 3150 3151 3151 3151
3065 3065 3065 3066 3067 3068 3068 3069 3070 3070 3071 3071 3072 3072 3073 3075 3076 3076 3077 3078 3079 3078 3076 3076 3075 3075 3074 3074 3074 3075 3075 3075 3076 3075 3076 3077 3078 3080 3081 3082 3084 3085 3087 3090 3092 3092 3092 3093 3094 3095 3097 3102 3106 3107 3109 3110 3110 3109 3109 3110 3113 3115 3117 3119 3120 3122 3124 3127 3128 3130 3133 3134 3136 3137 3139 3140 3142 3143 3144 3146 3147 3148 3149 3150 3150 3151
3064 3064 3064 3065 3066 3066 3067 3067 3068 3068 3069 3070 3070 3071 3072 3073 3074 3075 3076 3077 3077 3077 3076 3075 3074 3074 3073 3073 3073 3074 3074 3074 3075 3075 3076 3077 3078 3080 3081 3082 3083 3086 3089 3092 3093 3093 3091 3091 3093 3094 3096 3100 3103 3104 3105 3107 3107 3107 3108 3111 3113 3114 3115 3117 3119 3120 3122 3125 3128 3130 3132 3133 3135 3136 3138 3140 3141 3143 3144 3145 3146 3147 3148 3149 3150 3150
3063 3064 3063 3063 3064 3065 3065 3066 3066 3066 3067 3068 3069 3070 3071 3071 3072 3072 3073 3073 3073 3075 3075 3074 3073 3072 3072 3072 3073 3073 3073 3074 3074 3075 3076 3077 3078 3079 3080 3082 3084 3086 3089 3091 3093 3093 3091 3091 3092 3094 3095 3098 3100 3101 3102 3103 3105 3106 3108 3111 3112 3113 3113 3115 3117 3119 3121 3124 3127 3129 3130 3132 3134 3136 3138 3139 3141 3142 3143 3144 3145 3146 3148 3149 3149 3149
3061 3062 3062 3062 3063 3064 3064 3064 3065 3065 3065 3066 3067 3068 3069 3070 3071 3071 3072 3072 3071 3072 3074 3073 3072 3071 3071 3071 3072 3072 3073 3073 3074 3075 3076 3077 3077 3078 3080 3082 3084 3086 3088 3090 3092 3093 3092 3090 3091 3093 3094 3096 3098 3098 3099 3101 3103 3105 3108 3110 3110 3111 3112 3114 3116 3118 3121 3123 3126 3128 3129 3131 3133 3135 3137 3138 3139 3140 3142 3143 3143 3145 3146 3147 3148 3148
3059 3060 3061 3061 3062 3062 3063 3063 3063 3063 3064 3064 3065 3066 3067 3068 3069 3069 3069 3070 3071 3071 3072 3072 3070 3070 3070 3071 3071 3072 3072 3073 3074 3075 3076 3077 3077 3078 3080 3081 3082 3084 3085 3087 3088 3090 3090 3089 3089 3091 3093 3094 3095 3096 3097 3099 3102 3104 3106 3107 3108 3109 3111 3113 3115 3117 3120 3122 3125 3127 3128 3130 3132 3134 3135 3137 3138 3139 3140 3141 3142 3143 3145 3146 3147 3147
3057 3058 3059 3060 3061 3061 3062 3062 3062 3062 3063 3063 3063 3064 3065 3066 3067 3067 3067 3068 3069 3069 3070 3070 3069 3069 3070 3070 3070 3071 3071 3072 3073 3074 3075 3076 3077 3078 3078 3079 3080 3081 3082 3083 3084 3085 3086 3086 3087 3089 3091 3092 3093 3094 3096 3097 3100 3102 3104 3106 3108 3109 3110 3111 3114 3116 3119 3121 3124 3126 3127 3129 3131 3133 3135 3136 3137 3138 3139 3140 3141 3142 3143 3144 3145 3147
3056 3057 3058 3059 3060 3060 3061 3061 3061 3062 3062 3062 3062 3063 3064 3065 3065 3066 3066 3066 3066 3067 3068 3069 3069 3069 3069 3069 3070 3070 3071 3071 3072 3073 3074 3076 3076 3076 3077 3077 3078 3078 3078 3078 3079 3081 3083 3085 3086 3087 3088 3089 3090 3091 3093 3095 3098 3101 3103 3106 3107 3108 3109 3111 3113 3115 3118 3120 3122 3124 3126 3128 3130 3132 3133 3134 3135 3137 3138 3138 3139 3140 3141 3142 3144 3145
3054 3055 3056 3057 3058 3059 3060 3061 3060 3060 3061 3061 3061 3061 3062 3063 3064 3065 3065 3065 3065 3065 3066 3067 3067 3067 3068 3068 3069 3069 3070 3070 3071 3073 3074 3074 3075 3076 3076 3077 3077 3076 3076 3075 3075 3077 3081 3084 3085 3085 3086 3087 3088 3090 3092 3094 3097 3100 3102 3104 3105 3107 3108 3110 3112 3114 3116 3119 3121 3123 3124 3126 3128 3130 3131 3133 3134 3135 3136 3137 3137 3138 3139 3141 3142 3144
3053 3054 3055 3055 3056 3057 3059 3059 3058 3059 3060 3060 3060 3061 3061 3062 3062 3063 3064 3064 3064 3064 3065 3066 3066 3066 3067 3067 3068 3069 3069 3070 3071 3072 3073 3074 3074 3075 3076 3076 3076 3076 3076 3075 3075 3077 3080 3082 3082 3082 3083 3083 3085 3089 3091 3092 3095 3097 3099 3101 3103 3105 3107 3108 3110 3113 3114 3117 3118 3120 3122 3125 3126 3128 3129 3130 3132 3133 3134 3135 3136 3136 3137 3139 3140 3142
3051 3052 3053 3053 3054 3055 3056 3056 3057 3058 3058 3059 3059 3060 3060 3061 3061 3062 3062 3062 3062 3063 3064 3064 3065 3065 3066 3067 3067 3068 3069 3069 3070 3071 3072 3073 3073 3074 3075 3075 3076 3076 3077 3077 3077 3078 3080 3081 3081 3082 3082 3082 3084 3087 3090 3092 3094 3096 3098 3100 3102 3104 3105 3107 3109 3110 3112 3113 3114 3116 3119 3122 3124 3126 3127 3128 3129 3131 3132 3133 3134 3135 3136 3137 3139 3141
3050 3050 3052 3052 3053 3053 3054 3055 3056 3057 3057 3058 3059 3059 3060 3060 3060 3061 3061 3061 3062 3062 3062 3063 3064 3064 3065 3065 3066 3067 3067 3068 3069 3070 3071 3072 3072 3073 3074 3075 3075 3076 3077 3077 3078 3079 3080 3081 3082 3082 3083 3083 3084 3085 3088 3090 3092 3095 3097 3099 3100 3102 3103 3105 3106 3108 3110 3112 3114 3116 3118 3121 3122 3123 3124 3126 3127 3129 3130 3131 3132 3132 3133 3135 3137 3139
3049 3050 3051 3051 3052 3052 3053 3054 3055 3056 3056 3057 3058 3058 3059 3059 3059 3060 3060 3060 3060 3061 3061 3061 3062 3063 3063 3064 3065 3065 3066 3067 3068 3069 3070 3071 3072 3072 3073 3074 3075 3075 3076 3077 3078 3078 3080 3081 3082 3082 3082 3083 3083 3084 3086 3088 3090 3092 3094 3096 3098 3100 3101 3103 3105 3107 3109 3112 3114 3116 3117 3118 3119 3120 3122 3123 3125 3127 3128 3128 3129 3130 3131 3133 3135 3137
3048 3049 3050 3050 3051 3052 3053 3053 3054 3055 3055 3056 3057 3057 3058 3058 3059 3059 3059 3059 3059 3060 3060 3060 3061 3061 3062 3063 3064 3065 3066 3066 3067 3068 3069 3070 3071 3072 3073 3074 3075 3075 3076 3077 3078 3078 3079 3081 3081 3081 3081 3082 3082 3083 3084 3086 3088 3089 3091 3093 3095 3097 3099 3101 3104 3106 3108 3110 3112 3113 3114 3115 3116 3117 3119 3121 3123 3124 3124 3125 3126 3127 3129 3131 3132 3135
3047 3047 3048 3050 3051 3052 3052 3053 3053 3054 3055 3055 3056 3056 3057 3057 3058 3058 3058 3059 3059 3059 3059 3060 3060 3061 3062 3062 3063 3064 3065 3066 3067 3067 3069 3070 3070 3071 3072 3073 3074 3076 3077 3078 3078 3078 3079 3080 3081 3080 3080 3081 3081 3081 3083 3084 3086 3087 3089 3091 3093 3096 3098 3100 3102 3104 3106 3107 3108 3109 3110 3112 3113 3115 3116 3118 3119 3120 3119 3121 3124 3126 3127 3128 3129 3131
3046 3046 3047 3049 3050 3051 3052 3052 3053 3053 3054 3055 3055 3055 3056 3056 3057 3057 3058 3058 3058 3058 3059 3059 3060 3061 3062 3062 3063 3064 3065 3066 3067 3067 3068 3069 3070 3071 3072 3073 3074 3075 3077 3078 3078 3078 3079 3080 3080 3080 3080 3080 3080 3081 3082 3082 3084 3085 3087 3089 3091 3094 3097 3099 3100 3102 3103 3104 3105 3106 3108 3109 3111 3112 3113 3113 3115 3116 3117 3119 3121 3122 3123 3124 3125 3127
3045 3045 3045 3047 3049 3050 3051 3052 3052 3053 3054 3055 3055 3055 3055 3056 3056 3056 3057 3057 3058 3058 3059 3059 3060 3061 3062 3062 3063 3064 3065 3066 3067 3067 3068 3069 3070 3071 3072 3073 3074 3075 3076 3077 3078 3078 3079 3079 3080 3081 3081 3081 3081 3082 3082 3082 3083 3085 3087 3088 3091 3093 3096 3097 3098 3099 3101 3102 3104 3105 3107 3108 3109 3110 3110 3111 3112 3114 3116 3118 3119 3119 3119 3120 3121 3123
3044 3044 3044 3045 3047 3049 3050 3051 3052 3053 3053 3054 3055 3055 3055 3056 3056 3056 3056 3057 3057 3058 3058 3059 3059 3060 3061 3062 3062 3063 3064 3065 3067 3068 3068 3069 3070 3071 3072 3073 3074 3075 3076 3077 3078 3078 3079 3079 3080 3081 3082 3082 3083 3084 3084 3084 3084 3086 3088 3089 3091 3093 3094 3096 3097 3098 3100 3102 3103 3104 3105 3106 3107 3108 3109 3110 3111 3112 3114 3116 3116 3116 3116 3117 3118 3120
3043 3042 3043 3044 3046 3048 3050 3051 3053 3054 3054 3054 3055 3055 3055 3056 3056 3056 3056 3056 3056 3057 3058 3058 3059 3059 3060 3061 3062 3063 3064 3065 3066 3067 3068 3068 3069 3071 3072 3073 3074 3075 3076 3077 3078 3078 3079 3079 3080 3081 3083 3083 3084 3085 3085 3086 3086 3087 3089 3090 3091 3092 3093 3095 3096 3097 3099 3101 3102 3103 3104 3105 3106 3107 3108 3109 3110 3111 3113 3113 3113 3113 3114 3115 3117 3119
3043 3042 3042 3044 3046 3048 3049 3051 3053 3054 3055 3054 3055 3055 3055 3056 3056 3056 3056 3056 3057 3057 3057 3058 3058 3058 3059 3061 3062 3063 3064 3065 3066 3067 3067 3068 3069 3070 3071 3072 3073 3074 3075 3076 3078 3078 3079 3080 3080 3081 3082 3084 3084 3085 3086 3087 3087 3088 3089 3090 3091 3091 3093 3094 3095 3096 3098 3100 3101 3102 3104 3105 3105 3107 3108 3109 3110 3111 3111 3112 3112 3112 3113 3114 3116 3118
3043 3042 3042 3043 3046 3048 3049 3051 3053 3054 3055 3055 3055 3055 3055 3055 3055 3056 3056 3056 3057 3057 3057 3057 3057 3058 3059 3060 3062 3063 3064 3064 3065 3066 3066 3067 3068 3069 3070 3071 3072 3073 3074 3075 3077 3078 3079 3080 3080 3081 3082 3083 3084 3085 3086 3087 3088 3089 3090 3090 3090 3091 3092 3093 3095 3096 3098 3099 3100 3102 3103 3104 3105 3106 3107 3108 3109 3110 3110 3111 3112 3113 3114 3115 3117 3119
3044 3044 3043 3044 3046 3047 3048 3051 3053 3054 3054 3055 3055 3055 3056 3055 3055 3056 3056 3056 3057 3057 3057 3057 3058 3058 3059 3060 3061 3062 3063 3064 3064 3065 3066 3066 3068 3069 3070 3070 3071 3072 3073 3074 3076 3077 3078 3079 3080 3081 3082 3082 3083 3085 3086 3087 3088 3089 3089 3090 3090 3091 3092 3093 3094 3096 3097 3098 3100 3101 3102 3103 3104 3105 3106 3107 3108 3109 3110 3111 3112 3113 3114 3116 3117 3118
3044 3045 3045 3045 3046 3047 3048 3050 3052 3054 3055 3055 3055 3056 3056 3056 3056 3056 3056 3056 3057 3057 3057 3057 3058 3058 3059 3060 3061 3061 3062 3063 3064 3064 3065 3066 3067 3069 3070 3070 3071 3071 3071 3072 3074 3076 3077 3078 3079 3080 3081 3082 3083 3084 3085 3086 3087 3088 3089 3089 3090 3091 3092 3093 3094 3095 3097 3098 3099 3100 3102 3103 3104 3105 3106 3107 3108 3109 3110 3111 3111 3112 3113 3115 3115 3116
3044 3045 3045 3046 3047 3048 3049 3050 3053 3055 3055 3055 3056 3056 3056 3056 3056 3056 3056 3056 3057 3057 3057 3057 3058 3059 3060 3060 3061 3062 3062 3063 3063 3064 3065 3066 3067 3069 3070 3070 3071 3071 3072 3072 3072 3074 3075 3076 3077 3079 3080 3081 3082 3083 3084 3085 3086 3087 3088 3089 3090 3090 3091 3092 3094 3095 3096 3098 3099 3100 3101 3102 3103 3104 3105 3106 3107 3108 3109 3110 3110 3111 3112 3113 3114 3114
3045 3045 3046 3047 3048 3049 3049 3051 3053 3055 3056 3055 3056 3056 3057 3056 3056 3056 3056 3057 3057 3057 3057 3057 3058 3059 3060 3061 3062 3062 3062 3063 3064 3064 3065 3066 3067 3069 3070 3070 3072 3073 3073 3073 3073 3074 3075 3076 3077 3077 3079 3080 3082 3083 3084 3085 3086 3087 3087 3088 3089 3090 3091 3092 3094 3095 3096 3097 3099 3100 3101 3102 3103 3103 3104 3105 3106 3107 3108 3109 3109 3110 3110 3111 3112 3112
3045 3046 3048 3049 3049 3050 3051 3052 3054 3055 3056 3056 3056 3056 3057 3057 3056 3056 3056 3057 3058 3058 3058 3058 3059 3060 3061 3061 3062 3062 3062 3063 3064 3065 3065 3066 3067 3069 3070 3071 3072 3073 3074 3074 3075 3075 3076 3077 3078 3078 3079 3080 3081 3082 3084 3085 3085 3086 3087 3087 3088 3089 3091 3092 3094 3095 3096 3097 3098 3099 3100 3101 3102 3103 3104 3104 3105 3106 3107 3107 3108 3109 3109 3110 3110 3111
3046 3048 3049 3050 3050 3051 3052 3053 3055 3057 3057 3056 3056 3056 3057 3057 3056 3056 3056 3057 3058 3058 3059 3059 3060 3061 3062 3062 3062 3063 3063 3064 3065 3066 3067 3067 3068 3069 3070 3071 3073 3073 3074 3075 3075 3076 3077 3078 3078 3079 3080 3080 3081 3082 3083 3084 3085 3086 3087 3087 3088 3089 3090 3091 3093 3094 3095 3096 3097 3098 3099 3100 3101 3102 3102 3103 3104 3104 3105 3106 3106 3107 3107 3108 3108 3109
3048 3049 3050 3051 3051 3052 3054 3056 3057 3058 3058 3057 3057 3057 3057 3057 3056 3056 3056 3057 3057 3058 3058 3059 3060 3061 3062 3062 3063 3063 3064 3065 3066 3067 3068 3069 3070 3070 3071 3072 3073 3073 3074 3075 3075 3076 3077 3077 3078 3079 3080 3080 3081 3082 3083 3084 3085 3086 3086 3087 3088 3088 3089 3091 3092 3093 3094 3095 3096 3097 3098 3099 3100 3100 3101 3101 3102 3103 3103 3104 3104 3104 3105 3105 3106 3106
3051 3051 3052 3052 3052 3054 3056 3057 3059 3059 3059 3058 3058 3057 3057 3057 3057 3057 3057 3057 3057 3057 3058 3059 3060 3061 3062 3063 3063 3064 3064 3065 3066 3067 3068 3069 3070 3071 3072 3072 3072 3073 3073 3074 3075 3075 3076 3077 3078 3079 3079 3080 3081 3082 3083 3084 3084 3085 3086 3087 3087 3088 3089 3090 3091 3092 3092 3093 3094 3095 3096 3097 3098 3098 3099 3099 3100 3100 3101 3101 3101 3102 3102 3102 3103 3103
3052 3053 3053 3054 3054 3055 3057 3058 3059 3059 3060 3059 3059 3058 3058 3058 3057 3057 3057 3058 3058 3058 3058 3059 3060 3061 3062 3062 3063 3064 3065 3065 3066 3067 3068 3069 3070 3071 3071 3072 3072 3072 3073 3074 3074 3075 3076 3076 3077 3078 3079 3080 3080 3081 3082 3083 3083 3084 3085 3086 3087 3087 3088 3088 3089 3090 3090 3091 3092 3093 3094 3094 3095 3096 3096 3097 3097 3097 3098 3098 3098 3098 3099 3099 3099 3099
3054 3055 3055 3055 3056 3057 3058 3059 3060 3060 3060 3060 3060 3059 3059 3059 3058 3058 3057 3057 3058 3058 3058 3059 3060 3060 3061 3061 3062 3063 3064 3065 3066 3066 3068 3069 3070 3071 3071 3071 3071 3072 3072 3073 3074 3074 3075 3076 3077 3077 3078 3079 3080 3081 3081 3082 3083 3083 3084 3085 3085 3086 3087 3087 3088 3088 3089 3089 3090 3090 3091 3092 3092 3093 3093 3094 3094 3094 3094 3095 3095 3095 3095 3095 3095 3095
3056 3056 3056 3057 3057 3058 3059 3059 3060 3060 3060 3060 3060 3060 3060 3059 3059 3059 3058 3058 3058 3058 3059 3059 3060 3060 3060 3061 3062 3062 3063 3064 3065 3066 3067 3068 3069 3070 3070 3071 3071 3072 3072 3073 3074 3074 3075 3075 3076 3077 3077 3078 3079 3080 3080 3081 3082 3082 3083 3084 3084 3085 3086 3086 3087 3087 3087 3088 3088 3089 3089 3089 3089 3090 3090 3090 3090 3091 3090 3090 3090 3090 3090 3090 3090 3090
3057 3057 3057 3058 3058 3059 3059 3060 3060 3060 3061 3061 3061 3061 3060 3060 3060 3060 3059 3059 3059 3059 3060 3060 3060 3061 3061 3062 3062 3063 3063 3063 3064 3065 3066 3067 3068 3069 3070 3071 3071 3072 3073 3073 3074 3074 3075 3075 3076 3076 3077 3077 3078 3078 3079 3080 3080 3081 3082 3082 3083 3083 3084 3084 3084 3085 3085 3086 3086 3086 3087 3087 3087 3087 3086 3086 3086 3086 3086 3086 3086 3085 3085 3085 3085 3085
3058 3058 3058 3059 3059 3059 3060 3060 3061 3061 3061 3061 3061 3061 3061 3061 3061 3061 3061 3061 3061 3061 3061 3061 3062 3062 3062 3063 3063 3064 3064 3064 3065 3065 3066 3067 3068 3069 3070 3071 3071 3072 3073 3074 3074 3075 3075 3075 3076 3076 3076 3077 3077 3078 3078 3079 3079 3080 3080 3081 3081 3081 3081 3082 3082 3082 3083 3083 3084 3084 3084 3084 3084 3084 3084 3083 3083 3083 3083 3083 3083 3082 3082 3082 3082 3081
3059 3059 3059 3059 3059 3060 3060 3061 3061 3061 3061 3061 3062 3062 3062 3062 3062 3062 3062 3062 3062 3062 3062 3063 3063 3063 3063 3063 3064 3064 3064 3064 3065 3066 3067 3067 3068 3069 3069 3070 3071 3071 3072 3073 3074 3074 3075 3075 3076 3076 3077 3077 3078 3078 3078 3079 3079 3079 3080 3080 3080 3080 3080 3081 3081 3082 3082 3082 3082 3082 3083 3083 3083 3083 3082 3082 3081 3081 3081 3081 3080 3080 3080 3080 3079 3079